Regional Weather Roundup
Issued by NWS

Home | Current Version | Previous Version | Text Only | Print | Product List | Glossary Off
Versions: 1 2 3 4 5 6 7 8 9 10 11 12 13 14 15 16 17 18 19 20 21 22 23 24 25 26 27 28 29 30 31 32 33 34 35 36 37 38 39 40 41 42 43 44 45 46 47 48 49 50

000
ASUS43 KDMX 271507
RWRIA

WEATHER ROUNDUP FOR IOWA
NATIONAL WEATHER SERVICE DES MOINES IA
1000 AM CDT MON JUL 27 2015

NOTE: "FAIR" INDICATES FEW OR NO CLOUDS BELOW 12,000 FEET WITH NO
SIGNIFICANT WEATHER AND/OR OBSTRUCTIONS TO VISIBILITY.

* - THESE STATIONS ARE NOT NWS STATIONS...THUS NOT UNDER NWS
QUALITY CONTROL.  THEY ALSO DO NOT REPORT WEATHER SUCH
AS PRECIPITATION OR FOG.

IAZ001>003-012>014-020>022-031>034-043>046-271600-
   NORTHWEST IOWA

CITY           SKY/WX    TMP DP  RH WIND       PRES   REMARKS
CARROLL *      LGT RAIN  72  70  94 NE16      29.93F
CHEROKEE *     CLOUDY    77  68  73 E9        29.89F
DENISON *      HVY RAIN  68  68 100 NW12G22   29.98R
LE MARS *      CLOUDY    75  68  78 SW16      29.95R
ORANGE CITY *  SUNNY     75  66  73 CALM      29.91R
SHELDON *      SUNNY     75  68  78 CALM      29.90R
SIOUX CITY     PTSUNNY   77  68  73 E6G17     29.89S
SPENCER        LGT RAIN  71  65  81 SE12      29.92F
STORM LAKE *   SUNNY     72  68  88 SE6       29.95S
$$

IAZ055>058-069>071-079>083-090>094-271600-
   SOUTHWEST IOWA

CITY           SKY/WX    TMP DP  RH WIND       PRES   REMARKS
ATLANTIC *     MOSUNNY   82  77  83 S12       29.90S HX  91
AUDUBON *      PTSUNNY   81  75  83 NE13      29.92R HX  86
CLARINDA *     MOSUNNY   82  79  89 VRB7      29.92S HX  93
COUNCIL BLFS * MOSUNNY   81  77  89 S5        29.90F HX  88
CRESTON *      SUNNY     84  79  84 SE14      29.92F HX  96
HARLAN  *      HVY RAIN  77  77 100 NE6G13    29.95S VSB 1/2
LAMONI         SUNNY     85  77  77 VRB7      29.92F HX  95
RED OAK *      MOSUNNY   81  79  94 S9        29.89F HX  89
SHENANDOAH *   SUNNY     81  77  89 S5        29.90S HX  88
$$

IAZ047>049-059>061-072>074-084-271600-
   CENTRAL IOWA

CITY           SKY/WX    TMP DP  RH WIND       PRES   REMARKS
AMES           PTSUNNY   80  74  81 SE6       29.95R HX  85
ANKENY *       SUNNY     81  77  89 SE9       29.92F HX  88
CHARITON *     MOSUNNY   84  77  79 SE9       29.94S HX  94
DES MOINES     CLOUDY    83  74  74 SE12      29.91F HX  89
GRINNELL*      CLOUDY    79  73  83 E10       29.97F HX  82
KNOXVILLE *    PTSUNNY   79  75  89 E9        29.93F HX  82
MARSHALLTOWN   CLOUDY    78  73  84 SE9       29.96F HX  81
PELLA *        CLOUDY    79  77  94 SE12      29.95F FOG     HX  83
PERRY *        PTSUNNY   81  77  89 E6        29.93R HX  88
$$

IAZ004>006-015-016-023>025-035-036-271600-
   NORTH CENTRAL IOWA

CITY           SKY/WX    TMP DP  RH WIND       PRES   REMARKS
ALGONA *       CLOUDY    73  73 100 SW8G16    29.99R FOG
CLARION *      CLOUDY    73  72  94 SE7       29.99R FOG
ESTHERVILLE    CLOUDY    72  72 100 S12       29.96F FOG
FORT DODGE *   CLOUDY    70  66  88 NW12G20   30.01R THUNDER
MASON CITY     CLOUDY    73  72  96 SE12      30.01R
FOREST CITY *  CLOUDY    73  72  94 SE9       29.99R
IOWA FALLS *   CLOUDY    73  73 100 SE6       29.99R FOG
$$

IAZ007>011-017>019-026>030-037>042-050>054-066-271600-
   NORTHEAST IOWA

CITY           SKY/WX    TMP DP  RH WIND       PRES   REMARKS
CEDAR RAPIDS   SUNNY     78  74  87 E7        29.98S HX  81
CHARLES CITY * MOSUNNY   77  75  94 SE9       30.00S
CLINTON *      MOSUNNY   79  70  73 SE8       30.02S HX  81
DUBUQUE        MOSUNNY   77  69  76 SE7       30.02S
MONTICELLO *   SUNNY     77  72  83 VRB7      30.00F
OELWEIN *      SUNNY     75  72  88 SE7       30.01R
WATERLOO       PTSUNNY   77  72  84 SE9       29.97S
$$

IAZ064-065-067-068-078-271600-
   EAST CENTRAL IOWA

CITY           SKY/WX    TMP DP  RH WIND       PRES   REMARKS
DAVENPORT      MOSUNNY   78  71  79 E10       30.00S HX  80
IOWA CITY      SUNNY     79  72  79 SE6       29.99S HX  82
MT. PLEASANT * CLOUDY    81  73  78 E5        29.98S HX  85
MUSCATINE *    SUNNY     81  72  74 E8        29.98S HX  84
QUAD CITIES    SUNNY     79  70  74 E9        29.99S HX  82
$$

IAZ062-063-075>077-085>089-095>099-271600-
   SOUTHEAST IOWA

CITY           SKY/WX    TMP DP  RH WIND       PRES   REMARKS
BURLINGTON     SUNNY     78  74  87 E6        29.98S HX  81
FAIRFIELD *    MOSUNNY   79  73  83 E7        29.98S HX  82
FORT MADISON * SUNNY     79  79 100 E6        29.98S HX  83
KEOKUK *       PTSUNNY   81  75  83 SE7       29.97S HX  86
OSKALOOSA *    CLOUDY    77  75  94 SE7       29.97F
CENTERVILLE *  SUNNY     82  77  83 SE9       29.97S HX  91
OTTUMWA        CLOUDY    79  76  90 E10       29.95F HX  83
WASHINGTON *   CLOUDY    75  73  94 S5        30.00R FOG
$$

ABBREVIATIONS USED IN REMARKS
   TC - TEMPERATURES IN CELSIUS
  WCI - WIND CHILL INDEX
   HX - HEAT INDEX
  VSB - VISIBILITY
$$



USA.gov is the U.S. government's official web portal to all federal, state and local government web resources and services.